History for Miami, FL

Wednesday, November 7, 2012 — View Current Conditions

Jump to Data:

Date:
Airport Code:
Recently Viewed Airport Codes: KMIA
Daily Summary
  Actual Average Record
Temperature
Mean Temperature 69°F 76°F  
Max Temperature 75°F 83°F 88°F (2013)
Min Temperature 62°F 69°F 53°F (1907)
Degree Days
Heating Degree Days 0 0  
Month to date heating degree days 0 0  
Since 1 July heating degree days 0 0  
Cooling Degree Days 4 11  
Month to date cooling degree days 49 82  
Year to date cooling degree days 4288 4154  
Growing Degree Days 19 (Base 50)    
Moisture
Dew Point 55°F    
Average Humidity 67    
Maximum Humidity 84    
Minimum Humidity 49    
Precipitation
Precipitation 0.00 in 0.13 in 2.44 in (1982)
Month to date precipitation 0.00 0.95  
Year to date precipitation 85.93 57.54  
Snow
Snow 0.00 in in in ()
Month to date snowfall 0.0  
Since 1 July snowfall 0.0  
Since 1 September snowfall 0.0  
Snow Depth 0.00 in    
Sea Level Pressure
Sea Level Pressure 29.92 in    
Wind
Wind Speed 8 mph (NW)    
Max Wind Speed 16 mph    
Max Gust Speed 23 mph    
Visibility 10 miles    
Events      
T = Trace of Precipitation, MM = Missing Value Source: NWS Daily Summary

Show full METARS

(help) - Comma Delimited File

Hourly Observations

Time(EST) Temperature Dew Point Humidity Sea Level Pressure Visibility Wind Direction Wind Speed Gust Speed Precipitation Events Conditions
12:53 AM 72.0°F 66.0°F 81% 29.88 in 10.0 miles WNW 4.6 mph - N/A   Mostly Cloudy
1:53 AM 72.0°F 64.0°F 76% 29.86 in 10.0 miles WSW 4.6 mph - N/A   Mostly Cloudy
2:53 AM 72.0°F 64.0°F 76% 29.86 in 10.0 miles WNW 5.8 mph - N/A   Overcast
3:53 AM 71.1°F 64.0°F 78% 29.86 in 10.0 miles NW 9.2 mph - N/A   Overcast
4:53 AM 68.0°F 59.0°F 73% 29.88 in 10.0 miles NW 6.9 mph - N/A   Clear
5:53 AM 66.9°F 57.0°F 70% 29.90 in 10.0 miles Variable 4.6 mph - N/A   Scattered Clouds
6:53 AM 66.0°F 55.9°F 70% 29.92 in 10.0 miles Variable 3.5 mph - N/A   Mostly Cloudy
7:53 AM 68.0°F 55.0°F 63% 29.94 in 10.0 miles NW 8.1 mph - N/A   Scattered Clouds
8:53 AM 70.0°F 54.0°F 57% 29.96 in 10.0 miles NW 10.4 mph 17.3 mph N/A   Partly Cloudy
9:53 AM 70.0°F 55.0°F 59% 29.97 in 10.0 miles NNW 9.2 mph 17.3 mph N/A   Scattered Clouds
10:53 AM 72.0°F 54.0°F 53% 29.95 in 10.0 miles NW 10.4 mph 16.1 mph N/A   Scattered Clouds
11:53 AM 73.0°F 54.0°F 51% 29.93 in 10.0 miles WNW 9.2 mph 17.3 mph N/A   Partly Cloudy
12:53 PM 73.0°F 54.0°F 51% 29.90 in 10.0 miles WNW 10.4 mph 19.6 mph N/A   Scattered Clouds
1:53 PM 73.9°F 54.0°F 50% 29.89 in 10.0 miles NW 12.7 mph 23.0 mph N/A   Mostly Cloudy
2:53 PM 75.0°F 55.9°F 51% 29.88 in 10.0 miles NW 10.4 mph - N/A   Mostly Cloudy
3:53 PM 73.0°F 55.0°F 53% 29.88 in 10.0 miles WNW 9.2 mph 17.3 mph N/A   Scattered Clouds
4:53 PM 72.0°F 53.1°F 51% 29.89 in 10.0 miles WNW 10.4 mph 18.4 mph N/A   Partly Cloudy
5:53 PM 69.8°F 51.8°F 53% 29.90 in 10.0 miles WNW 9.2 mph 16.1 mph N/A   Partly Cloudy
6:53 PM 69.1°F 53.1°F 57% 29.93 in 10.0 miles NW 5.8 mph - N/A   Clear
7:53 PM 66.9°F 50.0°F 54% 29.96 in 10.0 miles WNW 8.1 mph - N/A   Clear
8:53 PM 66.0°F 48.9°F 54% 29.98 in 10.0 miles NW 6.9 mph 17.3 mph N/A   Clear
9:53 PM 64.0°F 48.0°F 56% 30.00 in 10.0 miles NW 6.9 mph - N/A   Clear
10:53 PM 63.0°F 48.9°F 60% 30.01 in 10.0 miles NW 6.9 mph - N/A   Clear
11:53 PM 62.1°F 48.9°F 62% 30.01 in 10.0 miles Variable 4.6 mph - N/A   Clear